SAOCOM 1A

Last updated on Tue Jul 28 2026 00:02:13 GMT+0000 (Coordinated Universal Time)

1 43641U 18076A 26208.57489628 -.00000041 00000+0 13906-5 0 9996 2 43641 97.8892 34.7379 0001500 88.2096 271.9289 14.82154357422089
UTC large
Height (km)
Speed (km/s)
/
Latitude / Longitude
Inclination (degrees)
Orbital Period (minutes)
Azimuth
Elevation
Range (km)
Doppler Factor

Next 0 passes for location: London (51.5072 / 0.1276)

No passes found over London.
SAOCOM 1A